This demonstration page uses our WeatherBlox Daily Observations layout. Learn more.

Left ArrowRight Arrow

Hourly Observations for August 26, 2015

Temp ( °F °C ) Dew Point ( °F °C ) Humidity (%) Winds ( mph kmh ) Pressure ( in mb ) Visibility ( mi km ) Precip ( " mm )
12:51 am 00:51 Clear 73 22.8 63 17.2 71 71 ESE 8 13 29.99 1016 10 16 0.00 0.00
1:51 am 01:51 Clear 74 23.3 62 16.7 67 67 SSE 6 9 29.96 1015 10 16 0.00 0.00
2:51 am 02:51 Clear 73 22.8 63 17.2 71 71 SSE 7 11 29.94 1014 10 16 0.00 0.00
3:51 am 03:51 Clear 73 22.8 61 16.1 66 66 E 14 22 29.96 1015 10 16 0.00 0.00
4:51 am 04:51 Clear 73 22.8 63 17.2 71 71 ESE 8 13 29.97 1015 10 16 0.00 0.00
5:51 am 05:51 Sunny 72 22.2 63 17.2 73 73 SE 8 13 30.01 1016 10 16 0.00 0.00
6:51 am 06:51 Sunny 73 22.8 61 16.1 66 66 SE 12 19 30.02 1017 10 16 0.00 0.00
7:51 am 07:51 Sunny 76 24.4 61 16.1 60 60 ESE 10 17 30.04 1017 10 16 0.00 0.00
8:51 am 08:51 Sunny 77 25 61 16.1 58 58 SE 8 13 30.04 1017 10 16 0.00 0.00
9:51 am 09:51 Sunny 80 26.7 62 16.7 54 54 SE 7 11 30.04 1017 10 16 0.00 0.00
10:51 am 10:51 Sunny 85 29.4 59 15 42 42 SE 7 11 30.03 1017 10 16 0.00 0.00
11:51 am 11:51 Sunny 87 30.6 58 14.4 37 37 ESE 9 15 29.99 1016 10 16 0.00 0.00
12:51 pm 12:51 Mostly Sunny 88 31.1 59 15 38 38 E 7 11 29.97 1015 10 16 0.00 0.00
1:51 pm 13:51 Sunny 91 32.8 58 14.4 33 33 Calm 29.93 1013 10 16 0.00 0.00
2:51 pm 14:51 Mostly Sunny 95 35 57 13.9 28 28 VRB 5 7 29.89 1012 10 16 0.00 0.00
3:51 pm 15:51 Sunny 94 34.4 57 13.9 29 29 VRB 3 6 29.87 1012 10 16 0.00 0.00
4:51 pm 16:51 Sunny 93 33.9 58 14.4 31 31 undefined N/A 29.87 1011 10 16 0.00 0.00
5:51 pm 17:51 Sunny 89 31.7 57 13.9 34 34 WSW 5 7 29.87 1012 10 16 0.00 0.00
6:51 pm 18:51 Sunny 87 30.6 61 16.1 42 42 NW 5 7 29.89 1012 10 16 0.00 0.00
7:51 pm 19:51 Clear 85 29.4 67 19.4 55 55 WNW 7 11 29.91 1013 10 16 0.00 0.00
8:51 pm 20:51 Clear 85 29.4 64 17.8 50 50 NW 13 20 29.93 1014 10 16 0.00 0.00
9:51 pm 21:51 Clear 81 27.2 63 17.2 54 54 W 12 19 29.94 1014 10 16 0.00 0.00
10:51 pm 22:51 Clear 78 25.6 64 17.8 62 62 NW 6 9 29.93 1014 10 16 0.00 0.00
11:51 pm 23:51 Clear 77 25 65 18.3 66 66 WNW 5 7 29.94 1014 10 16 0.00 0.00

Powered by AerisWeather